DW0542 Weather Reports


time (UTC)temp
C
wind
direction
speed
KPH
gust
KPH
rain 1hr
cm
rain 24hr
cm
rain mn
cm
humidity
%
barometer
mb
20210927063009 9 290 0.0 0.0 0.00 0.03 0.00 90 1013.8
20210927061543 9 290 0.0 0.0 0.00 0.03 0.00 90 1013.9
20210927060005 10 290 0.0 0.0 0.00 0.03 0.00 90 1013.9
20210927054502 10 290 0.0 0.0 0.00 0.03 0.00 90 1013.8
20210927053252 9 290 0.0 1.6 0.00 0.03 0.00 90 1013.7
20210927051624 10 290 0.0 0.0 0.00 0.03 0.00 90 1013.5
20210927050248 10 290 0.0 0.0 0.00 0.03 0.00 89 1013.2
20210927044648 10 290 0.0 0.0 0.00 0.03 0.00 90 1013.1
20210927043205 10 290 0.0 0.0 0.00 0.03 0.00 89 1013.1
20210927041617 10 290 0.0 0.0 0.00 0.03 0.00 89 1012.9
20210927040057 10 290 0.0 0.0 0.00 0.03 0.03 89 1012.8
20210927034511 10 290 0.0 0.0 0.00 0.03 0.03 89 1012.8
20210927033012 10 290 0.0 0.0 0.00 0.03 0.03 89 1012.5
20210927031709 10 290 0.0 0.0 0.00 0.03 0.03 89 1012.6
20210927030056 10 290 0.0 0.0 0.00 0.03 0.03 88 1012.7
20210927024601 10 290 0.0 0.0 0.00 0.03 0.03 88 1012.7
20210927023241 10 290 0.0 0.0 0.00 0.03 0.03 88 1012.6
20210927021525 11 290 0.0 0.0 0.00 0.03 0.03 88 1012.4
20210927020033 11 290 0.0 0.0 0.00 0.03 0.03 87 1012.3
20210927013138 11 290 0.0 0.0 0.00 0.03 0.03 86 1012.2
20210927011606 11 290 0.0 0.0 0.00 0.03 0.03 85 1012.1
20210927010120 12 290 0.0 0.0 0.00 0.03 0.03 84 1012.1
20210927004648 12 290 0.0 0.0 0.00 0.03 0.03 82 1011.9
20210927003056 12 290 0.0 0.0 0.00 0.03 0.03 80 1011.8
20210927001551 13 290 0.0 0.0 0.00 0.03 0.03 77 1011.7
20210927000052 15 290 0.0 0.0 0.00 0.03 0.03 70 1011.4
20210926234522 16 290 0.0 1.6 0.00 0.03 0.03 67 1011.2
20210926233041 16 290 3.2 9.7 0.00 0.03 0.03 63 1011.0
20210926231522 17 264 4.8 12.9 0.00 0.03 0.03 61 1010.9
20210926224501 17 269 11.3 16.1 0.00 0.03 0.03 62 1010.6
20210926223110 18 273 6.4 12.9 0.00 0.03 0.03 60 1010.4
20210926221657 18 257 8.0 14.5 0.00 0.03 0.03 60 1010.3
20210926220110 18 271 6.4 19.3 0.00 0.03 0.03 59 1010.0
20210926214617 19 286 16.1 27.4 0.00 0.03 0.03 56 1009.7
20210926213054 19 265 12.9 22.5 0.00 0.03 0.03 57 1009.5
20210926211530 19 292 17.7 29.0 0.00 0.03 0.03 54 1009.4
20210926210041 19 289 19.3 35.4 0.00 0.03 0.03 53 1009.2
20210926204648 19 289 16.1 30.6 0.00 0.03 0.03 53 1008.9
20210926203135 19 274 17.7 29.0 0.00 0.03 0.03 52 1008.8
20210926201723 19 293 20.9 33.8 0.00 0.03 0.03 55 1008.8
20210926200105 19 301 17.7 29.0 0.00 0.03 0.03 52 1008.8
20210926194705 19 287 14.5 30.6 0.00 0.03 0.03 55 1008.6
20210926193032 19 260 16.1 32.2 0.00 0.03 0.03 53 1008.5
20210926191541 19 280 20.9 32.2 0.00 0.03 0.03 52 1008.3
20210926190026 20 248 14.5 30.6 0.00 0.03 0.03 47 1008.1
20210926184521 20 313 22.5 37.0 0.00 0.03 0.03 50 1008.1
20210926183040 20 301 14.5 25.7 0.00 0.03 0.03 51 1008.1
20210926180020 20 277 16.1 25.7 0.00 0.03 0.03 55 1008.2
20210926174532 20 280 12.9 29.0 0.00 0.03 0.03 59 1008.2
20210926173025 20 300 14.5 20.9 0.00 0.03 0.03 61 1008.1
20210926171517 19 291 17.7 24.1 0.00 0.03 0.03 63 1008.2
20210926170006 19 273 12.9 25.7 0.00 0.03 0.03 67 1008.4
20210926163005 19 295 14.5 22.5 0.00 0.03 0.03 66 1008.4
20210926161509 19 260 14.5 22.5 0.00 0.03 0.03 67 1008.3
20210926160138 19 299 14.5 20.9 0.00 0.03 0.03 68 1008.4
20210926154749 19 295 8.0 19.3 0.00 0.03 0.03 71 1008.5
20210926153107 18 267 11.3 20.9 0.00 0.03 0.03 75 1008.7
20210926151821 18 300 9.7 17.7 0.00 0.03 0.03 71 1008.8
20210926150141 18 291 9.7 17.7 0.00 0.03 0.03 72 1008.9
20210926144606 18 320 11.3 29.0 0.00 0.03 0.03 72 1008.9
20210926143127 18 325 14.5 24.1 0.00 0.03 0.03 73 1009.0
20210926141603 18 305 14.5 25.7 0.00 0.03 0.03 76 1009.0
20210926140141 18 286 14.5 24.1 0.00 0.03 0.03 77 1009.0
20210926134706 17 318 14.5 22.5 0.00 0.03 0.03 80 1008.9
20210926133036 17 290 14.5 24.1 0.00 0.03 0.03 80 1009.1
20210926131606 17 326 17.7 24.1 0.00 0.05 0.03 81 1009.0
20210926130038 16 299 11.3 19.3 0.00 0.05 0.03 81 1008.7
20210926124547 16 311 12.9 24.1 0.00 0.05 0.03 82 1008.8
20210926123037 16 311 11.3 22.5 0.00 0.05 0.03 83 1008.8
20210926121545 16 307 14.5 20.9 0.00 0.05 0.03 85 1008.5
20210926120107 15 324 8.0 16.1 0.00 0.05 0.03 84 1008.5
20210926114553 15 320 8.0 17.7 0.00 0.05 0.03 84 1008.5
20210926113045 16 320 9.7 17.7 0.00 0.05 0.03 84 1008.4
20210926111527 16 317 4.8 16.1 0.00 0.05 0.03 84 1008.3
20210926110026 16 323 8.0 16.1 0.03 0.05 0.03 83 1008.1
20210926104519 16 317 6.4 16.1 0.03 0.05 0.03 84 1008.1
20210926101516 16 291 4.8 9.7 0.03 0.05 0.03 89 1008.2
20210926100014 16 270 1.6 6.4 0.00 0.03 0.00 87 1008.4
20210926094533 16 290 3.2 8.0 0.00 0.03 0.00 88 1008.2
20210926093019 16 288 1.6 3.2 0.00 0.03 0.00 90 1008.2
20210926091532 16 289 0.0 1.6 0.00 0.03 0.00 91 1008.3
20210926090014 16 299 0.0 0.0 0.00 0.03 0.00 90 1008.5
20210926084505 16 311 0.0 0.0 0.00 0.03 0.00 91 1008.4
20210926083013 16 311 0.0 6.4 0.00 0.03 0.00 92 1008.5
20210926081617 16 316 3.2 6.4 0.00 0.03 0.00 92 1008.5
20210926080158 16 315 0.0 0.0 0.00 0.03 0.00 91 1009.2
20210926074643 16 315 0.0 3.2 0.00 0.03 0.00 92 1009.3
20210926073246 16 315 0.0 0.0 0.00 0.03 0.00 92 1009.0
20210926071706 16 315 0.0 0.0 0.00 0.03 0.00 92 1009.4
20210926070121 16 92 0.0 4.8 0.00 0.03 0.00 93 1009.4
20210926064619 16 89 0.0 0.0 0.00 0.03 0.00 92 1009.3